Wind_Speed
8 7 6 7 6 9 9 2 3 1 4 6 8 9 12 11 12 14 14 15 14 13 13 12 12 12 11 10 9 9 9 10 9 9 10 10 10 10 10 10 10 10 11 11 12 11 10 10 10
7 7 6 6 5 8 2 3 4 3 2 5 7 9 10 10 11 13 14 14 15 14 13 13 11 11 10 9 7 7 7 7 6 6 7 7 8 8 9 10 9 9 10 10 11 11 11 10 10
6 7 7 6 6 5 3 5 5 5 5 6 8 8 9 9 9 11 12 13 14 14 13 12 11 10 10 9 8 7 7 7 6 5 5 5 5 5 6 8 8 9 9 10 10 10 11 11 11
4 6 8 7 6 6 9 7 6 7 8 9 10 10 10 9 9 8 9 10 10 11 11 10 9 9 8 8 7 7 7 6 6 5 5 4 3 3 4 6 7 7 8 9 9 9 10 11 11
3 5 7 8 4 6 10 8 7 8 9 11 12 12 11 10 10 8 7 7 6 7 7 6 6 5 5 5 5 4 5 5 5 6 6 6 5 5 5 6 7 7 7 8 8 8 9 10 10
4 5 6 6 3 8 11 8 7 9 11 12 13 13 13 12 11 10 8 7 5 4 4 4 3 2 1 2 2 3 3 4 5 6 7 8 8 7 7 7 8 8 7 7 8 8 9 9 10
9 7 6 4 2 6 13 10 8 10 12 14 13 14 14 14 13 12 10 8 7 5 4 4 3 2 2 2 3 3 4 4 5 6 7 8 9 10 10 10 10 9 9 8 8 8 9 9 10
13 11 9 6 3 7 14 10 9 9 11 12 14 14 15 15 15 14 13 11 9 7 6 5 5 4 4 4 5 5 5 6 7 7 8 9 10 11 12 12 12 12 11 10 9 9 10 10 11
18 15 11 7 3 10 16 13 11 11 11 12 13 12 13 14 14 15 14 13 11 9 8 7 7 6 7 7 8 9 9 9 9 9 10 10 11 11 12 13 13 13 13 12 11 11 11 12 12
22 18 14 11 11 13 18 16 14 13 12 12 12 11 11 13 14 15 15 15 14 13 11 10 9 10 10 11 13 13 13 13 12 12 12 12 12 11 12 12 13 14 13 12 11 12 13 13 13
27 23 21 17 20 24 20 15 15 16 15 15 15 14 13 13 14 15 17 17 16 15 14 14 14 15 15 16 16 16 15 14 14 15 14 15 14 13 13 13 14 14 14 13 12 13 13 13 13
30 28 27 24 24 24 23 20 18 18 18 18 18 16 15 14 14 15 17 18 19 18 17 17 18 18 19 19 18 18 17 17 16 17 17 18 18 17 16 16 16 15 15 15 14 13 12 12 12
33 31 31 30 29 25 23 24 22 20 24 22 21 18 18 17 16 16 18 19 19 20 19 19 20 20 20 21 21 21 21 20 20 20 21 21 22 22 21 20 20 19 18 16 16 15 15 14 14
35 35 34 33 32 29 27 26 25 24 27 27 26 23 23 22 20 20 20 20 20 21 21 21 21 21 22 23 23 24 24 24 24 24 24 25 26 27 27 26 25 24 22 21 19 18 17 17 17
38 39 37 35 34 32 30 29 27 27 30 31 30 28 28 27 25 24 24 24 24 23 23 23 24 24 25 25 26 27 28 27 27 28 28 29 30 32 33 32 31 29 27 26 24 22 21 21 20
34 36 37 35 36 35 33 31 26 28 32 34 33 32 32 31 30 29 28 28 28 28 27 28 28 29 29 29 30 30 31 31 31 32 32 33 35 36 37 37 36 34 32 30 29 26 25 24 22
30 31 31 30 30 31 33 33 25 26 33 36 36 36 35 35 34 34 33 33 33 32 32 33 33 33 33 33 33 34 34 34 34 35 35 36 38 39 40 39 39 38 36 34 32 30 27 26 24
19 20 23 24 22 27 30 30 27 28 34 36 38 39 39 39 38 38 37 37 36 36 36 37 37 37 37 37 37 37 37 37 37 37 38 39 40 41 41 42 40 38 36 35 34 32 30 28 26
22 24 22 19 18 26 31 32 31 31 35 37 40 42 40 41 41 40 41 41 40 40 40 40 40 40 40 39 39 39 39 38 38 39 40 42 44 44 44 42 40 39 37 36 35 33 30 30 30
28 29 27 22 21 29 36 36 33 34 36 41 44 45 43 40 39 41 43 44 45 44 44 43 43 43 43 43 43 42 41 40 40 40 42 44 45 46 46 45 43 42 41 40 36 35 34 32 32
29 28 28 28 24 27 37 40 37 36 40 46 47 46 46 45 44 44 45 46 47 47 47 46 45 45 45 45 45 44 44 43 42 42 43 45 48 48 48 47 46 46 44 42 39 37 36 34 33
28 24 27 29 31 30 30 32 32 32 37 43 45 45 46 46 45 44 45 46 47 48 48 47 46 45 45 45 45 45 45 45 45 46 47 48 50 50 50 49 49 48 46 43 41 39 37 35 34
28 29 32 32 34 36 35 34 32 27 33 39 41 40 40 42 43 43 43 44 45 46 47 46 46 45 45 45 45 46 47 47 49 50 50 51 52 52 51 51 50 48 45 42 40 38 37 35 34
33 34 37 37 37 39 37 36 37 31 35 42 44 41 37 37 39 41 42 42 43 44 45 45 45 45 45 45 46 47 48 50 51 52 53 54 54 53 52 50 48 46 43 40 39 37 36 35 35
27 32 36 38 39 41 34 35 36 37 43 47 48 45 41 38 37 38 40 41 42 43 44 45 45 46 47 47 48 49 50 52 53 54 55 55 54 52 49 47 45 43 40 39 37 35 35 34 35
20 24 29 34 35 35 33 36 40 42 46 49 51 51 50 49 47 45 44 43 44 44 45 47 48 49 49 50 51 52 53 54 54 54 54 53 51 49 46 43 42 40 38 37 35 34 35 36 35
26 28 30 34 36 37 36 38 42 43 45 48 52 53 53 52 51 51 50 49 48 48 49 49 50 51 52 53 53 54 54 54 54 53 51 49 47 44 42 40 39 38 37 36 37 36 36 37 37
29 31 33 36 39 40 39 35 40 44 46 46 48 52 53 52 52 52 51 50 49 49 49 50 51 52 52 52 51 51 51 50 49 48 46 44 42 40 38 36 36 35 35 35 37 38 37 37 36
29 30 31 35 38 40 40 38 38 40 43 45 43 40 44 49 50 48 47 46 46 46 46 46 46 46 46 46 45 45 44 44 42 41 40 39 37 36 34 33 32 32 31 31 32 34 33 31 29
26 29 33 35 36 37 40 41 40 41 43 45 46 42 38 38 40 40 40 41 42 42 42 42 42 42 42 41 41 40 40 39 37 36 35 35 34 33 31 31 30 30 30 29 28 26 26 25 24
Wind_Direction
159 147 131 114 110 89 70 299 288 176 137 127 121 118 109 103 103 103 100 99 99 99 98 96 94 94 93 90 87 84 83 80 75 69 64 62 62 59 54 48 42 35 31 27 26 28 30 28 23
166 167 161 141 106 62 83 269 261 252 185 163 153 142 127 116 111 108 104 100 97 95 95 95 93 91 87 81 75 72 72 71 66 61 61 60 61 60 53 46 38 30 24 20 17 18 21 22 20
162 169 163 162 88 348 272 249 253 251 226 200 182 163 148 138 124 115 110 104 99 94 92 92 91 88 82 74 67 63 63 63 60 54 53 55 58 58 49 42 35 25 18 13 8 7 9 11 12
158 160 158 147 89 296 271 263 257 247 233 214 201 184 175 165 150 137 123 115 108 101 96 93 90 86 79 70 60 53 49 48 48 42 34 29 30 28 23 22 22 20 13 6 0 357 358 0 2
170 158 160 132 110 271 266 253 254 248 235 223 212 197 192 186 179 169 156 144 132 122 113 106 98 89 80 69 54 41 32 23 16 9 1 353 345 339 341 350 356 359 359 356 351 345 344 349 353
214 184 162 134 167 253 273 251 242 242 233 226 217 206 206 204 199 195 189 183 174 165 152 146 135 117 71 41 23 11 2 352 345 339 336 332 325 317 315 320 328 333 335 338 338 333 329 331 337
233 222 188 169 222 262 276 261 242 238 231 225 219 212 214 218 217 216 212 208 205 205 203 202 204 232 270 296 316 328 336 335 331 326 322 318 313 308 306 305 307 312 313 317 323 325 321 321 323
239 237 222 188 243 268 271 259 242 234 225 221 218 215 218 226 229 231 228 226 225 225 230 233 241 254 276 295 306 312 318 320 320 322 322 318 311 305 301 300 300 300 302 302 305 313 317 316 317
241 238 230 188 230 267 267 252 237 226 220 213 217 221 225 229 234 236 235 234 235 238 240 245 255 263 282 292 298 300 302 305 308 311 315 316 315 310 302 299 298 296 297 296 297 305 310 310 311
240 239 227 203 207 222 246 244 236 230 225 220 219 221 228 234 237 238 240 241 241 244 247 251 264 276 290 296 297 295 294 294 299 306 311 311 312 312 309 305 302 298 295 293 295 303 307 305 305
239 237 226 218 228 223 234 242 238 237 234 233 231 233 240 242 242 243 243 244 246 250 254 258 270 282 293 299 299 295 292 290 296 304 307 307 308 309 307 303 301 298 294 290 290 296 300 300 301
240 237 232 228 238 237 235 238 237 243 243 244 242 243 248 249 248 249 247 247 250 254 260 266 274 284 291 296 298 298 296 294 297 302 306 308 307 309 309 307 302 296 292 288 287 289 292 295 298
240 240 237 236 240 244 238 238 236 236 245 242 247 249 252 251 252 255 254 254 256 260 264 272 277 282 288 293 295 298 298 297 298 301 304 308 309 310 311 309 305 299 292 287 285 286 288 293 298
242 242 241 242 245 245 243 240 239 235 244 244 247 249 253 253 255 258 259 261 265 268 270 275 280 284 288 291 292 294 295 297 297 299 304 307 309 310 310 311 307 301 294 288 284 282 282 285 289
245 246 246 247 250 251 249 245 242 241 243 246 247 248 252 255 256 259 261 264 267 272 275 279 282 285 287 289 290 291 292 294 295 297 301 304 307 309 309 310 307 301 295 289 284 281 279 278 281
246 248 249 250 253 254 254 251 246 249 248 248 249 248 249 254 257 259 262 265 268 271 275 277 280 283 285 286 288 289 290 292 294 296 298 302 305 308 308 307 306 300 293 285 281 279 278 277 280
247 249 251 252 254 257 254 254 244 247 253 253 252 250 251 253 255 259 261 264 267 270 272 275 276 279 282 284 285 286 288 289 290 292 295 299 302 305 309 309 307 303 295 287 281 277 276 277 279
244 258 261 257 249 251 248 247 242 239 247 254 255 253 252 253 255 258 260 262 264 268 270 272 274 276 279 282 284 285 286 287 288 289 292 294 296 300 304 308 310 307 302 293 284 279 277 277 280
228 233 235 244 244 242 250 245 237 238 245 249 253 254 252 254 254 256 259 262 264 266 268 270 273 275 277 279 281 283 286 287 287 287 289 291 294 297 300 305 309 312 311 303 291 282 279 279 281
236 237 233 224 232 234 239 244 242 234 244 250 252 255 257 257 256 257 258 261 264 266 268 270 271 272 274 276 278 279 282 283 284 285 286 288 292 294 298 300 303 306 309 306 301 289 283 283 283
247 248 245 235 230 246 250 252 253 243 241 249 253 257 259 259 258 258 258 260 263 266 268 269 271 272 273 274 276 277 277 279 280 282 284 286 288 291 294 297 300 301 302 303 299 295 287 284 284
249 250 248 243 237 242 255 262 259 255 251 253 255 257 259 260 259 258 258 260 262 265 267 268 269 270 270 271 272 273 274 276 278 280 282 284 286 289 292 295 296 297 298 298 295 292 288 284 281
241 241 243 242 243 244 247 256 258 257 262 263 262 260 260 260 259 258 257 257 258 260 263 264 266 268 269 270 272 274 275 277 278 280 282 284 286 289 291 293 293 294 293 293 292 288 284 281 278
248 248 251 253 254 254 254 257 259 256 258 261 262 264 262 260 259 259 259 259 258 259 260 261 263 265 268 270 273 275 277 278 280 282 284 285 287 289 290 290 290 290 290 288 287 284 281 278 276
261 260 261 260 259 261 264 264 262 257 254 256 262 264 263 259 261 262 261 260 260 259 260 261 262 265 267 270 273 275 277 279 281 283 284 286 287 288 289 288 287 286 285 283 282 280 276 274 273
269 267 266 265 263 261 255 254 253 253 255 256 258 260 262 263 263 263 263 261 261 260 261 262 263 265 268 270 273 275 277 278 280 281 283 285 286 287 287 286 284 282 279 278 276 275 271 269 269
274 273 272 271 269 266 259 255 257 257 256 256 256 257 258 261 263 263 262 260 260 261 262 263 264 266 268 270 272 274 276 277 278 280 282 283 285 286 285 284 281 278 275 272 271 269 266 264 265
277 276 275 273 274 274 271 264 256 257 259 260 258 253 253 257 261 263 262 261 260 261 262 264 266 267 269 270 272 273 274 275 277 278 280 282 282 283 284 283 280 277 274 270 267 263 260 259 261
279 276 271 272 273 273 272 266 260 259 259 262 262 261 257 257 260 262 262 261 261 262 264 265 266 267 268 269 270 271 273 274 275 277 278 279 280 281 282 282 279 276 275 271 266 262 259 258 259
286 278 272 271 269 268 267 267 266 263 260 261 263 267 267 264 261 261 262 261 262 263 264 265 265 266 267 269 270 272 273 274 274 275 275 277 278 280 281 281 281 282 281 280 279 276 271 266 264
Height
5913 5914 5916 5918 5920 5919 5920 5922 5921 5921 5920 5920 5920 5919 5919 5920 5921 5922 5920 5919 5920 5920 5920 5921 5922 5922 5923 5923 5923 5923 5923 5923 5922 5922 5921 5920 5919 5919 5918 5917 5915 5914 5913 5912 5911 5909 5909 5908 5907
5913 5915 5917 5919 5919 5920 5921 5921 5921 5921 5922 5921 5921 5921 5921 5921 5922 5922 5921 5922 5922 5922 5923 5923 5924 5924 5924 5925 5925 5925 5924 5924 5923 5922 5922 5921 5920 5919 5918 5918 5917 5915 5914 5913 5912 5911 5910 5909 5908
5913 5914 5917 5919 5919 5921 5921 5921 5921 5920 5921 5921 5922 5923 5923 5923 5924 5923 5923 5923 5924 5924 5924 5924 5925 5925 5926 5926 5926 5926 5925 5924 5924 5923 5922 5921 5921 5920 5919 5918 5917 5916 5915 5914 5913 5912 5911 5909 5909
5912 5914 5916 5919 5921 5923 5921 5921 5920 5919 5920 5921 5922 5923 5922 5923 5924 5924 5924 5925 5925 5925 5925 5926 5926 5926 5926 5927 5927 5926 5926 5925 5924 5923 5922 5922 5921 5921 5920 5919 5918 5917 5916 5915 5913 5912 5911 5910 5909
5912 5914 5916 5917 5921 5923 5920 5920 5919 5919 5919 5920 5921 5922 5922 5923 5924 5924 5924 5925 5925 5926 5926 5926 5927 5927 5927 5927 5927 5926 5926 5925 5924 5924 5923 5922 5921 5921 5920 5919 5918 5917 5916 5915 5914 5913 5912 5911 5910
5911 5914 5915 5917 5920 5922 5920 5919 5918 5918 5918 5919 5920 5921 5922 5923 5923 5923 5924 5925 5925 5926 5926 5926 5926 5927 5927 5926 5926 5926 5926 5925 5924 5924 5923 5922 5921 5920 5919 5918 5918 5917 5916 5915 5914 5912 5911 5910 5909
5910 5912 5913 5916 5918 5921 5919 5918 5917 5917 5917 5918 5919 5920 5921 5922 5923 5923 5923 5924 5925 5925 5926 5926 5926 5926 5926 5926 5926 5925 5925 5924 5924 5923 5922 5921 5920 5919 5918 5917 5917 5916 5915 5914 5913 5912 5911 5910 5908
5908 5911 5913 5915 5919 5920 5918 5917 5916 5916 5916 5917 5918 5918 5920 5921 5922 5923 5923 5924 5924 5925 5925 5925 5925 5925 5925 5925 5925 5925 5925 5924 5923 5922 5920 5919 5918 5917 5916 5916 5915 5915 5914 5914 5913 5912 5910 5909 5908
5905 5909 5911 5914 5920 5921 5916 5916 5916 5915 5915 5916 5917 5918 5919 5920 5921 5922 5922 5923 5923 5924 5924 5925 5925 5925 5925 5924 5924 5924 5923 5923 5922 5920 5919 5918 5917 5916 5915 5914 5914 5913 5913 5912 5911 5911 5909 5908 5906
5902 5906 5909 5911 5916 5917 5913 5913 5914 5914 5914 5915 5916 5916 5917 5918 5919 5920 5921 5922 5922 5922 5923 5923 5923 5923 5923 5923 5923 5922 5921 5921 5920 5919 5918 5916 5915 5915 5914 5913 5912 5911 5911 5910 5910 5909 5908 5906 5905
5899 5902 5904 5906 5909 5910 5910 5911 5912 5912 5913 5914 5914 5915 5916 5916 5918 5918 5919 5920 5920 5920 5921 5921 5922 5922 5921 5921 5920 5920 5919 5918 5918 5917 5916 5915 5914 5913 5912 5911 5911 5910 5909 5909 5908 5907 5906 5905 5903
5895 5897 5899 5901 5904 5905 5907 5908 5909 5910 5910 5910 5911 5913 5913 5914 5915 5916 5916 5917 5917 5918 5918 5919 5919 5919 5919 5918 5917 5917 5917 5916 5916 5915 5914 5913 5912 5911 5910 5910 5909 5908 5907 5906 5905 5905 5904 5902 5901
5890 5893 5894 5896 5898 5901 5903 5904 5906 5907 5906 5907 5907 5909 5910 5911 5912 5913 5913 5914 5914 5915 5915 5915 5916 5916 5915 5915 5914 5914 5913 5913 5913 5912 5911 5910 5910 5909 5908 5908 5907 5906 5904 5903 5902 5901 5900 5899 5898
5885 5887 5889 5891 5894 5896 5899 5901 5902 5903 5902 5903 5904 5906 5906 5907 5908 5909 5910 5910 5911 5911 5911 5912 5912 5912 5911 5911 5910 5910 5909 5909 5909 5908 5908 5907 5907 5906 5906 5905 5905 5903 5902 5900 5899 5898 5896 5895 5894
5879 5882 5884 5887 5889 5891 5894 5896 5898 5899 5897 5898 5899 5901 5902 5903 5904 5905 5906 5906 5907 5907 5908 5908 5908 5908 5907 5907 5906 5905 5905 5905 5904 5904 5904 5903 5903 5902 5902 5902 5901 5900 5898 5896 5895 5894 5892 5891 5890
5873 5876 5879 5883 5884 5886 5889 5891 5893 5893 5893 5893 5894 5895 5897 5898 5899 5900 5901 5901 5902 5903 5903 5903 5903 5903 5903 5902 5901 5901 5900 5900 5899 5899 5899 5899 5898 5898 5897 5897 5896 5894 5892 5891 5890 5889 5887 5886 5885
5869 5872 5874 5877 5878 5880 5882 5884 5888 5888 5886 5887 5888 5889 5890 5891 5892 5894 5895 5896 5896 5897 5898 5898 5898 5898 5898 5897 5897 5896 5895 5895 5894 5894 5894 5894 5893 5892 5892 5891 5889 5887 5885 5884 5883 5883 5881 5880 5879
5866 5869 5870 5873 5876 5876 5877 5879 5882 5882 5881 5881 5881 5882 5884 5885 5886 5888 5889 5890 5891 5891 5892 5892 5892 5892 5892 5891 5891 5890 5889 5889 5888 5888 5888 5888 5887 5887 5886 5885 5883 5881 5879 5877 5876 5875 5875 5874 5873
5860 5862 5865 5871 5873 5872 5870 5872 5875 5875 5874 5874 5873 5873 5877 5878 5880 5882 5882 5883 5884 5885 5885 5885 5885 5885 5885 5885 5884 5883 5883 5882 5882 5882 5881 5880 5880 5881 5880 5879 5877 5875 5873 5871 5870 5869 5868 5868 5867
5853 5856 5859 5862 5865 5864 5863 5863 5867 5868 5867 5865 5865 5867 5870 5871 5870 5874 5875 5875 5876 5877 5878 5878 5879 5879 5878 5878 5877 5877 5876 5876 5875 5875 5875 5874 5874 5873 5873 5873 5871 5870 5868 5865 5863 5862 5862 5861 5860
5849 5851 5853 5856 5857 5856 5855 5856 5859 5861 5860 5858 5859 5860 5862 5863 5865 5867 5868 5867 5868 5869 5869 5870 5871 5871 5871 5870 5870 5869 5869 5869 5868 5868 5868 5867 5867 5866 5866 5865 5864 5862 5861 5859 5857 5855 5855 5855 5854
5844 5846 5846 5847 5849 5850 5850 5849 5852 5853 5853 5851 5853 5854 5854 5854 5856 5858 5859 5860 5860 5860 5860 5861 5862 5862 5862 5862 5862 5861 5861 5861 5861 5860 5860 5860 5859 5859 5858 5857 5856 5854 5852 5850 5848 5847 5847 5847 5847
5837 5837 5837 5838 5840 5842 5843 5843 5845 5848 5844 5842 5843 5845 5846 5846 5846 5847 5849 5850 5851 5851 5852 5852 5852 5853 5853 5853 5853 5853 5853 5852 5852 5851 5851 5851 5851 5850 5849 5848 5846 5844 5842 5841 5839 5838 5838 5838 5838
5830 5831 5830 5831 5833 5833 5836 5836 5836 5840 5837 5832 5830 5834 5837 5837 5837 5838 5839 5840 5842 5842 5843 5844 5844 5844 5844 5844 5844 5844 5844 5843 5843 5842 5842 5841 5841 5840 5839 5838 5836 5834 5832 5831 5830 5829 5829 5829 5829
5825 5826 5825 5825 5825 5825 5830 5828 5829 5827 5825 5822 5822 5824 5826 5826 5828 5829 5830 5831 5832 5833 5834 5835 5835 5836 5836 5836 5836 5835 5835 5834 5834 5833 5832 5831 5830 5829 5828 5827 5825 5824 5823 5822 5821 5820 5819 5820 5820
5819 5819 5819 5817 5817 5818 5820 5817 5815 5813 5813 5812 5813 5813 5815 5816 5819 5820 5821 5822 5823 5824 5825 5826 5826 5826 5827 5827 5827 5826 5826 5825 5824 5823 5822 5821 5820 5819 5818 5816 5815 5814 5813 5812 5811 5811 5811 5811 5812
5813 5812 5812 5809 5806 5805 5807 5809 5806 5804 5802 5800 5801 5801 5802 5804 5805 5807 5809 5811 5812 5813 5814 5815 5816 5816 5817 5817 5817 5816 5815 5814 5813 5813 5812 5811 5810 5809 5808 5806 5805 5804 5803 5803 5803 5803 5803 5803 5804
5806 5804 5803 5800 5796 5795 5796 5799 5798 5794 5793 5790 5786 5786 5788 5790 5792 5793 5795 5798 5800 5801 5803 5804 5804 5805 5805 5805 5805 5805 5805 5804 5803 5803 5802 5801 5801 5800 5799 5797 5796 5795 5795 5794 5794 5794 5794 5795 5795
5798 5796 5793 5790 5788 5786 5785 5788 5785 5785 5783 5781 5776 5773 5775 5777 5779 5781 5783 5785 5787 5789 5791 5792 5793 5793 5794 5794 5794 5794 5794 5794 5794 5794 5793 5793 5792 5791 5791 5790 5789 5788 5787 5786 5786 5785 5785 5786 5786
5789 5787 5784 5781 5778 5776 5774 5777 5774 5774 5773 5771 5769 5766 5767 5768 5770 5771 5772 5774 5776 5778 5780 5781 5782 5783 5784 5784 5785 5785 5785 5785 5785 5785 5785 5785 5784 5784 5783 5782 5782 5781 5780 5780 5779 5779 5778 5779 5779